This is the latest recevied weather packets stored in our database for station/object TA5KA. If no packets are shown the sender has not sent any weather packets the latest 10 day(s).
| Time | Temp. | Humidity | Pressure | Rain* | Wind** | Luminosity | Snow |
|---|---|---|---|---|---|---|---|
| 1778064735 | 12.22° C | 67% | 1018 hPa | 0 mm | - | - | - |
| 1778064213 | 12.22° C | 67% | 1018 hPa | 0 mm | - | - | - |
| 1778064134 | 12.22° C | 67% | 1018 hPa | 0 mm | - | - | - |
| 1778063612 | 13.33° C | 62% | 1017 hPa | 0 mm | - | - | - |
| 1778063533 | 13.33° C | 62% | 1017 hPa | 0 mm | - | - | - |
| 1778063010 | 13.89° C | 55% | 1017 hPa | 0 mm | - | - | - |
| 1778062931 | 13.89° C | 55% | 1017 hPa | 0 mm | - | - | - |
| 1778062409 | 12.78° C | 57% | 1016 hPa | 0 mm | - | - | - |
| 1778062330 | 12.78° C | 57% | 1016 hPa | 0 mm | - | - | - |
| 1778061807 | 14.44° C | 55% | 1017 hPa | 0 mm | - | - | - |
| 1778061728 | 14.44° C | 55% | 1017 hPa | 0 mm | - | - | - |
| 1778061206 | 14.44° C | 55% | 1017 hPa | 0 mm | - | - | - |
| 1778061126 | 14.44° C | 55% | 1017 hPa | 0 mm | - | - | - |
| 1778060604 | 13.33° C | 62% | 1017 hPa | 0 mm | - | - | - |
| 1778060525 | 13.33° C | 62% | 1017 hPa | 0 mm | - | - | - |
| 1778060003 | 12.22° C | 67% | 1017 hPa | 0 mm | - | - | - |
| 1778059924 | 12.22° C | 67% | 1017 hPa | 0 mm | - | - | - |
| 1778059401 | 12.22° C | 71% | 1017 hPa | 0 mm | - | - | - |
| 1778059322 | 12.22° C | 71% | 1017 hPa | 0 mm | - | - | - |
| 1778058800 | 12.22° C | 71% | 1017 hPa | 0 mm | - | - | - |
| 1778058720 | 12.22° C | 71% | 1017 hPa | 0 mm | - | - | - |
| 1778058199 | 12.22° C | 71% | 1017 hPa | 0 mm | - | - | - |
| 1778058119 | 12.22° C | 71% | 1017 hPa | 0 mm | - | - | - |
| 1778057597 | 12.22° C | 71% | 1017 hPa | 0 mm | - | - | - |
| 1778057518 | 12.22° C | 71% | 1017 hPa | 0 mm | - | - | - |
* Rain latest hour (hover to see other rain measurements)
** Current wind speed in m/s (hover to see current wind gust speed)